This demonstration page uses our WeatherBlox Daily Observations layout. Learn more.

Left ArrowRight Arrow

39.92423, -83.80882

Hourly Observations for June 15, 2022

Temp ( °F °C ) Dew Point ( °F °C ) Humidity (%) Winds ( mph kmh ) Pressure ( in mb ) Visibility ( mi km ) Precip ( " mm )
12:56 am 00:56 Clear 77 25 N/A N/A SW 6 9 29.96 1015 10 16 0.00 0.00
1:56 am 01:56 Clear 75 24 N/A N/A Calm 29.97 1015 10 16 0.00 0.00
2:56 am 02:56 Clear 77 25 N/A N/A SSW 5 7 29.97 1015 10 16 0.00 0.00
3:56 am 03:56 Clear 75 24 N/A N/A ESE 3 6 29.97 1015 9 14 0.00 0.00
4:56 am 04:56 Hazy N/A N/A N/A Calm N/A 4 6 0.00 0.00
5:56 am 05:56 Hazy N/A N/A N/A SW 3 6 N/A 6 10 0.01 0.25
6:56 am 06:56 Hazy N/A N/A N/A SW 5 7 N/A 6 10 0.00 0.00
7:56 am 07:56 Sunny 77 25 N/A N/A WSW 5 7 30.02 1017 7 11 0.00 0.00
8:56 am 08:56 Sunny 82 27.8 78 25.6 88 88 WSW 8 13 30.03 1017 8 13 0.00 0.00
9:56 am 09:56 Sunny 85 29.4 74 23.3 70 70 W 12 19 30.03 1017 9 14 0.00 0.00
10:56 am 10:56 Sunny 88 31.1 74 23.3 63 63 W 9 15 30.03 1017 8 13 0.00 0.00
11:56 am 11:56 Sunny 89 31.7 74 23.3 61 61 WSW 8 13 30.04 1017 9 14 0.00 0.00
12:56 pm 12:56 Sunny 90 32.2 71 21.7 54 54 WSW 3 6 30.04 1017 9 14 0.00 0.00
1:56 pm 13:56 Sunny 92 33.3 70 21.1 49 49 SW 9 15 30.04 1017 9 14 0.00 0.00
2:56 pm 14:56 Sunny 92 33.3 71 21.7 51 51 SW 10 17 30.03 1017 9 14 0.00 0.00
3:56 pm 15:56 Sunny 93 33.9 71 21.7 49 49 S 10 17 30.02 1017 10 16 0.00 0.00
4:56 pm 16:56 Sunny 93 33.9 71 21.7 49 49 SW 15 24 29.96 1015 9 14 0.00 0.00
5:56 pm 17:56 Sunny 92 33.3 71 21.7 51 51 S 10 17 29.95 1014 10 16 0.00 0.00
6:56 pm 18:56 Sunny 90 32.2 72 22.2 56 56 SSW 12 19 29.95 1014 10 16 0.00 0.00
7:56 pm 19:56 Sunny 88 31.1 72 22.2 59 59 SSW 8 13 29.98 1015 10 16 0.00 0.00
8:56 pm 20:56 Sunny 85 29.4 73 22.8 68 68 SSW 6 9 29.97 1015 10 16 0.00 0.00
9:56 pm 21:56 Clear 82 27.8 74 23.3 77 77 VRB 5 7 29.97 1015 10 16 0.00 0.00
10:56 pm 22:56 Clear 81 27.2 75 23.9 82 82 SW 6 9 29.97 1015 10 16 0.00 0.00
11:56 pm 23:56 Clear 78 25.6 78 25.6 100 100 SW 6 9 29.99 1016 10 16 0.00 0.00

Powered by AerisWeather